Home > Weather > Rockford > Past weeks

Flag for USA Past Weather in Rockford, Illinois, USA — Yesterday and Last 2 Weeks

Now
66 °F

Overcast.


Feels Like: 66 °F
Forecast: 63 / 79 °F
Wind: 8 mph from South

Location: Greater Rockford Airport

Current Time: May 31, 2016 at 10:36:24 PM

Latest Report: May 31, 2016 at 9:54 PM


Visibility: 10 mi

Pressure: 29.97 "Hg

Humidity: 84%

Dew Point: 61 °F

Location of RockfordLocation

Past Weather in Rockford — Graph

°F

Rockford Temperature Yesterday

Maximum temperature yesterday: 87 °F (at 4:54 PM)
Minimum temperature yesterday: 61 °F (at 5:54 AM)
Average temperature yesterday: 75 °F

High & Low Weather Summary for the Past Weeks

 TemperatureHumidityPressure
High88 °F (May 25, 1:54 PM)94% (May 26, 2:54 AM)30.29 "Hg (May 26, 2:54 AM)
Low39 °F (May 18, 5:54 AM)24% (May 22, 1:54 PM)29.78 "Hg (May 27, 6:54 PM)
Average68 °F60%30.03 "Hg
* Reported May 16 8:54 PM — May 31 8:54 PM, Rockford, Weather by CustomWeather, © 2016

Note: Actual official high and low records may vary slightly from our data, if they occured in-between our weather recording intervals... More about our weather records

Advertising

Rockford Weather History for the Previous 24 Hours

Scroll right to see more
 ConditionsComfort  
Time TempWeatherWind HumidityBarometerVisibility
8:54 PM
Tue, May 31
66 °FMostly cloudy.3 mph84%29.94 "Hg10 mi
7:54 PM67 °FMostly cloudy.6 mph85%29.95 "Hg10 mi
6:54 PM67 °FMore clouds than sun.8 mph87%29.95 "Hg10 mi
5:54 PM67 °FMostly cloudy.9 mph87%29.95 "Hg10 mi
4:54 PM66 °FMostly cloudy.12 mph90%29.96 "Hg10 mi
3:54 PM67 °FLight rain. More clouds than sun.8 mph90%30.02 "Hg10 mi
2:54 PM66 °FLight rain. Mostly cloudy.8 mph87%30.02 "Hg9 mi
1:54 PM66 °FLight rain. Cloudy.No wind90%30.05 "Hg6 mi
12:54 PM66 °FThunderstorms. More clouds than sun.8 mph90%30.02 "Hg9 mi
12:02 PM65 °FStrong thunderstorms. Mostly cloudy.9 mph87%30.05 "Hg2 mi
10:54 AM78 °FPartly sunny.13 mph50%29.99 "Hg10 mi
9:54 AM78 °FScattered clouds.13 mph52%29.97 "Hg10 mi
8:54 AM74 °FPartly sunny.7 mph62%29.99 "Hg10 mi
7:54 AM68 °FMore clouds than sun.7 mph73%30.00 "Hg10 mi
6:54 AM68 °FOvercast.6 mph76%29.99 "Hg10 mi
5:54 AM65 °FPassing clouds.7 mph78%29.98 "Hg10 mi
4:54 AM64 °FThunderstorms. Partly cloudy.9 mph84%29.99 "Hg8 mi
3:54 AM64 °FThunderstorms. Partly cloudy.6 mph75%29.98 "Hg10 mi
2:54 AM65 °FPassing clouds.No wind73%29.98 "Hg10 mi
1:54 AM67 °FPassing clouds.3 mph66%29.99 "Hg10 mi
12:54 AM67 °FPassing clouds.5 mph66%29.98 "Hg10 mi
11:54 PM
Mon, May 30
69 °FPassing clouds.9 mph63%29.98 "Hg10 mi
10:54 PM71 °FPassing clouds.6 mph51%29.98 "Hg10 mi
Weather by CustomWeather, © 2016

See weather overviewHow to use our weather pages